This is the latest recevied weather packets stored in our database for station/object TA2NC-13. If no packets are shown the sender has not sent any weather packets the latest 10 day(s).
| Time | Temp. | Humidity | Pressure | Rain* | Wind** | Luminosity | Snow |
|---|---|---|---|---|---|---|---|
| 1777634401 | 12.22° C | 64% | 1012 hPa | 0 mm | - | - | - |
| 1777633801 | 12.78° C | 64% | 1012 hPa | 0 mm | - | - | - |
| 1777633201 | 12.78° C | 66% | 1012 hPa | 0 mm | - | - | - |
| 1777632601 | 12.22° C | 66% | 1012 hPa | 0 mm | - | - | - |
| 1777632001 | 12.78° C | 67% | 1012 hPa | 0 mm | - | - | - |
| 1777631400 | 12.22° C | 66% | 1012 hPa | 0 mm | - | - | - |
| 1777630801 | 12.22° C | 69% | 1012 hPa | 0 mm | - | - | - |
| 1777630200 | 12.78° C | 69% | 1012 hPa | 0 mm | - | - | - |
| 1777629601 | 13.33° C | 64% | 1012 hPa | 0 mm | - | - | - |
| 1777629000 | 13.33° C | 63% | 1012 hPa | 0 mm | - | - | - |
| 1777628400 | 13.33° C | 60% | 1012 hPa | 0 mm | - | - | - |
| 1777627801 | 13.33° C | 59% | 1012 hPa | 0 mm | - | - | - |
| 1777627200 | 13.89° C | 57% | 1012 hPa | 0 mm | - | - | - |
| 1777626601 | 14.44° C | 57% | 1012 hPa | 0 mm | - | - | - |
| 1777626001 | 14.44° C | 57% | 1012 hPa | 0 mm | - | - | - |
| 1777625401 | 13.89° C | 57% | 1012 hPa | 0 mm | - | - | - |
| 1777624801 | 13.89° C | 56% | 1012 hPa | 0 mm | - | - | - |
| 1777624201 | 14.44° C | 56% | 1012 hPa | 0 mm | - | - | - |
| 1777623601 | 13.89° C | 57% | 1012 hPa | 0 mm | - | - | - |
| 1777623001 | 13.89° C | 60% | 1012 hPa | 0 mm | - | - | - |
| 1777622401 | 14.44° C | 59% | 1012 hPa | 0 mm | - | - | - |
| 1777621801 | 14.44° C | 59% | 1012 hPa | 0 mm | - | - | - |
| 1777621201 | 15° C | 57% | 1012 hPa | 0 mm | - | - | - |
| 1777620601 | 15° C | 57% | 1011 hPa | 0 mm | - | - | - |
| 1777620001 | 15° C | 56% | 1011 hPa | 0 mm | - | - | - |
* Rain latest hour (hover to see other rain measurements)
** Current wind speed in m/s (hover to see current wind gust speed)